Wind_Speed
4 5 4 6 12 16 21 25 24 26 20 21 24 23 24 21 20 19 18 17 16 15 16 15 14 15 17 15 14 13 13 13 14
5 6 4 4 10 14 16 21 22 25 19 18 20 21 20 20 20 21 18 17 16 18 17 15 14 15 16 16 16 15 15 15 15
6 7 4 3 8 12 14 16 17 20 22 18 15 16 18 19 20 20 19 17 18 18 17 16 15 14 15 15 15 16 15 16 15
8 8 5 4 7 11 13 14 15 16 19 19 18 18 19 20 20 20 19 19 20 20 18 17 16 15 14 14 15 16 16 16 16
7 8 8 9 10 11 11 12 12 13 14 18 19 19 18 19 18 18 18 19 20 19 18 16 16 15 15 15 16 16 17 18 17
7 9 9 10 11 10 9 9 9 10 11 13 13 14 16 17 18 18 18 18 19 17 16 15 13 11 11 18 22 19 18 18 18
9 10 9 9 9 8 6 5 4 4 7 8 10 11 13 14 15 16 16 17 16 13 13 10 5 18 35 54 39 17 19 19 20
10 12 13 12 12 11 12 12 8 2 6 7 8 9 9 9 9 9 12 12 12 12 11 15 18 9 7 22 29 25 23 16 22
11 12 14 12 13 15 21 18 17 13 5 4 6 6 5 4 5 7 8 8 9 11 18 25 23 19 17 21 33 30 20 20 20
12 13 12 12 6 13 22 16 21 18 11 8 6 3 2 1 3 5 7 6 8 14 26 29 29 25 26 33 27 20 25 20 21
12 12 12 12 17 24 19 18 15 11 15 14 13 11 9 8 5 5 6 5 8 12 22 32 33 33 40 33 22 20 20 20 24
11 11 13 13 14 13 8 13 9 11 13 15 18 18 15 11 8 6 6 6 6 9 20 29 30 30 34 28 26 28 16 22 23
10 12 12 11 11 11 12 13 13 14 15 17 19 18 17 16 13 10 7 7 8 7 14 23 31 28 26 29 30 19 18 21 19
9 9 11 10 10 11 13 15 15 15 16 17 16 16 16 16 15 13 11 9 8 8 11 18 26 24 24 22 20 18 22 20 23
7 8 9 11 11 11 12 15 15 15 14 17 16 16 15 15 15 13 13 12 10 7 9 12 17 22 22 23 21 20 19 17 18
6 9 10 11 12 13 12 13 15 15 16 17 18 16 16 16 16 14 14 13 12 11 10 10 15 16 16 14 10 11 12 17 18
7 8 9 10 9 10 13 15 14 15 18 19 18 18 19 17 16 15 14 14 11 12 12 12 14 18 13 6 5 8 11 9 13
8 9 10 11 12 13 13 15 16 18 19 22 23 21 19 18 16 16 16 13 13 14 13 12 15 13 11 11 13 7 8 11 13
7 8 10 12 13 13 14 16 16 17 20 22 22 22 20 19 19 19 16 15 16 14 16 14 13 12 12 13 17 21 21 23 20
8 10 11 13 13 14 15 17 18 20 22 21 20 20 20 20 18 17 17 16 16 18 17 14 12 14 15 15 18 15 16 20 24
Wind_Direction
30 17 73 158 185 194 194 198 207 204 209 210 210 209 214 217 219 223 228 230 238 237 240 242 239 238 238 239 235 234 232 233 235
30 12 31 152 178 188 191 196 203 207 204 204 205 211 215 219 221 222 223 225 228 234 239 243 241 238 239 241 240 237 232 236 237
356 10 16 125 167 178 188 196 202 210 211 215 213 216 219 222 222 224 226 226 227 232 236 236 240 240 242 247 248 247 242 240 239
16 15 50 106 145 160 174 183 192 202 212 216 219 221 223 222 223 224 221 224 230 231 236 234 235 236 240 245 251 254 253 249 248
43 57 74 93 117 142 157 171 184 192 206 213 220 223 225 226 227 226 223 227 231 233 230 232 233 238 241 245 247 251 251 250 247
80 83 78 95 108 123 137 153 171 183 201 218 216 216 224 229 230 230 234 235 234 234 237 235 232 241 262 290 267 258 251 249 249
100 94 79 82 83 75 97 124 152 197 215 213 220 221 222 228 232 237 240 239 240 238 236 233 245 65 353 339 317 279 269 259 253
97 85 74 61 51 50 47 61 50 341 245 231 227 223 235 240 247 245 243 242 237 230 218 196 163 238 46 353 280 268 259 258 256
96 84 74 65 64 55 37 28 36 26 16 208 214 225 242 263 252 249 248 244 235 213 194 210 217 241 224 228 224 237 228 246 254
91 79 67 62 54 68 54 14 36 20 29 60 84 82 37 349 272 255 253 236 220 208 203 207 223 221 229 242 239 253 242 219 225
87 77 69 60 47 38 44 26 27 23 42 43 46 48 44 29 358 297 273 237 229 207 217 202 203 228 227 246 258 267 287 223 216
80 77 72 69 62 58 53 50 12 32 36 38 34 25 18 13 7 343 313 285 247 224 212 213 225 226 227 249 263 276 282 237 230
79 64 57 55 51 43 36 23 14 19 23 31 22 8 360 358 1 342 315 299 283 234 214 223 219 228 240 253 266 271 280 244 243
73 54 38 20 25 24 15 5 5 6 6 13 4 353 350 347 351 346 331 311 289 267 222 223 221 234 248 260 255 260 270 250 245
52 30 18 7 358 356 2 359 356 354 355 345 344 343 339 339 339 341 339 332 316 294 266 252 241 246 249 257 263 268 262 251 241
28 13 8 360 1 342 352 2 354 350 341 335 332 335 335 332 330 331 333 331 329 317 293 273 281 266 264 253 244 251 264 257 249
24 13 6 358 348 351 359 1 354 352 348 341 340 341 332 324 320 331 329 322 317 314 309 336 332 347 311 289 278 284 269 260 263
18 6 1 1 355 356 353 350 354 354 345 350 351 344 332 324 322 320 316 312 318 309 308 316 311 313 318 314 297 324 326 313 290
15 10 1 357 353 350 346 349 348 351 352 352 351 338 332 329 324 315 315 318 312 305 304 315 323 318 306 296 279 274 277 277 277
12 8 9 4 352 349 348 358 353 347 343 342 336 327 328 327 321 325 321 318 312 313 308 307 311 305 301 309 312 289 276 277 265
Height
764 761 758 763 768 773 778 785 793 796 801 804 809 811 815 817 820 824 826 829 831 831 831 831 833 835 837 838 840 841 842 843 844
766 763 762 763 768 773 778 782 789 793 798 802 805 809 812 814 817 819 821 824 826 827 828 829 831 832 833 834 835 837 838 838 839
765 762 762 763 765 770 776 781 787 791 794 800 802 806 809 811 813 816 819 822 823 823 824 827 830 831 833 834 835 835 835 835 835
767 767 763 764 765 769 775 780 783 788 791 795 798 802 805 807 808 811 814 816 818 819 822 824 826 829 831 832 833 833 832 832 833
770 769 765 766 769 772 776 779 782 785 789 791 794 797 801 803 806 808 810 811 813 816 817 821 824 827 828 830 830 830 829 829 829
773 771 770 768 771 776 777 780 782 783 787 790 791 794 797 800 802 805 807 808 809 812 816 818 821 825 829 834 829 826 825 826 825
774 776 777 775 777 781 783 783 784 785 786 787 790 791 793 795 798 800 802 803 807 810 813 816 820 822 824 824 824 821 819 820 820
780 780 783 788 787 789 789 787 786 787 787 788 789 790 791 794 796 798 798 800 803 805 809 806 806 800 799 802 806 802 807 810 812
789 791 792 794 795 794 793 794 790 790 788 787 788 790 791 793 795 795 795 798 799 800 802 799 794 791 784 775 771 784 792 799 804
794 796 797 796 797 792 793 802 792 795 794 791 789 790 791 792 793 792 792 794 794 794 794 792 790 786 784 782 783 784 787 785 792
801 802 802 800 798 792 797 803 803 803 798 798 795 793 792 792 792 791 790 790 790 790 787 787 789 788 784 782 783 789 786 784 783
806 807 808 810 809 810 815 811 811 804 801 799 797 798 797 793 791 790 788 787 786 786 785 785 784 781 782 779 784 783 780 784 784
809 811 812 813 813 813 812 812 809 806 802 798 798 800 801 798 792 789 788 785 783 783 782 781 780 780 782 783 779 778 779 783 784
815 816 817 816 816 817 816 814 810 807 804 802 801 802 800 799 795 790 788 785 781 780 780 780 779 778 778 778 776 776 777 778 778
819 820 820 820 819 817 815 816 814 811 808 808 804 801 800 799 796 791 787 785 781 779 778 777 775 774 776 776 772 771 772 772 772
823 824 823 822 820 821 819 816 816 813 812 809 806 800 798 797 795 791 786 782 780 779 775 774 772 769 767 767 768 769 768 769 770
822 825 825 824 823 822 818 816 817 814 811 810 804 797 796 796 794 791 786 782 777 775 773 773 772 769 765 763 765 765 765 766 766
825 827 826 825 824 822 821 820 815 812 813 806 799 797 796 794 791 790 785 781 777 776 775 774 772 771 770 767 766 764 764 764 764
829 828 828 827 826 825 824 820 817 815 811 807 804 801 798 795 792 788 782 778 775 774 772 770 768 766 766 764 763 761 760 759 759
833 832 830 828 828 826 823 820 818 815 812 809 808 806 800 795 789 785 780 777 774 770 767 765 764 764 761 760 758 756 755 753 753